sat.trackr.live / text

‹ back to catalog

STARLINK-4141

NORAD 53138 · 2022-083G

PAYLOAD ACTIVE UNKNOWN

§ Identity

Operator
Country
US
Launch date
2022-07-17
Launch site
AFETR
Launch vehicle
Mass (kg)
RCS (m²)

Purposes: comms

External: N2YO · Heavens-Above · Gunter

§ Orbital elements

Epoch: 2026-09-19T21:59:52.145664Z

Period
94.01 min
Inclination
53.1614°
Eccentricity
0.0001148
Mean motion
15.31708923 rev/d
Perigee alt
469.9 km
Apogee alt
471.5 km
Semi-major
6,848.9 km
B*
2.4447e-5
RAAN
6.5494°
Arg perigee
85.3451°
Mean anomaly
274.7682°
Rev number
23,152

§ Raw data

STARLINK-41411 53138U 22083G   26262.91657576  .00000394  00000+0  24447-4 0  99992 53138  53.1614   6.5494 0001148  85.3451 274.7682 15.31708923231528

JSON: /api/v1/satellites/53138 · /tle

For live sub-satellite position, see the globe view (requires WebGL).

§ Visibility from observer

Set your observer location to see the next 7 days of passes ≥ 10°. The values pass through the URL so the page stays shareable.

No JS? Fill the form by hand. The geolocation button needs JavaScript.